Wind_Speed
3 5 9 6 7 5 8 8 10 13 10 12 11 9 12 9 11 10 7 7 7 7 7 4 3 3 4 4 4 2 2 4 3 2 1 4 1 2 4 0 2 4 4 5 4 5 4 2 2
6 8 8 7 4 4 8 9 10 10 7 9 8 8 9 8 9 7 6 5 5 6 6 5 3 4 6 5 4 5 4 5 4 4 1 4 2 4 3 2 2 3 3 3 4 3 3 2 2
5 7 6 6 9 11 8 8 9 11 12 5 5 8 6 7 7 7 4 3 5 5 3 4 4 5 7 7 8 11 9 7 0 3 1 2 0 3 3 2 2 4 4 4 3 4 4 3 2
2 5 6 5 7 11 7 9 10 11 7 6 5 7 7 5 8 7 3 3 3 4 3 3 3 7 7 8 9 10 11 8 2 7 2 2 1 2 2 3 1 3 6 5 5 5 3 2 2
2 6 1 3 9 9 11 10 9 8 4 5 8 9 8 6 5 5 3 2 1 2 1 2 5 7 6 6 6 5 6 5 6 3 6 9 8 2 4 3 1 3 4 5 7 6 5 5 2
4 4 5 6 5 5 6 5 4 6 6 10 12 10 11 5 2 5 3 2 1 1 1 3 4 8 8 5 5 4 2 4 4 4 7 3 11 0 6 3 2 3 3 4 7 7 8 6 5
8 4 6 4 4 2 3 4 3 2 5 6 7 8 9 8 2 4 2 2 1 1 2 4 5 5 6 7 5 3 1 3 4 6 5 0 3 5 5 3 3 3 3 4 6 9 8 8 7
5 2 2 5 3 1 2 3 3 4 7 8 6 9 8 6 4 3 2 3 3 3 4 5 6 5 4 6 6 4 2 2 4 7 1 4 8 6 2 1 1 1 1 3 5 9 7 8 7
1 1 2 2 4 4 5 1 1 2 7 8 9 8 7 5 6 6 5 4 5 5 5 4 5 5 4 2 3 2 0 2 5 8 5 9 12 7 5 2 1 2 1 2 7 8 7 9 9
3 4 6 6 4 6 8 7 5 4 4 6 7 5 6 7 6 6 3 2 2 3 4 4 3 5 3 1 1 2 2 1 2 5 4 7 7 4 4 2 2 0 1 3 8 7 7 8 9
4 3 6 7 7 6 6 9 8 4 3 4 4 4 4 6 5 2 1 2 2 3 4 4 3 4 3 3 2 2 4 3 1 2 2 1 2 1 2 2 1 0 1 3 6 6 6 5 8
2 6 6 6 9 11 10 10 10 9 7 4 4 6 7 6 4 1 4 4 5 6 4 4 3 3 4 3 2 5 3 4 2 2 1 4 3 2 2 2 1 1 2 4 6 6 6 4 8
9 7 7 3 8 13 12 11 13 13 11 10 9 9 8 8 7 5 6 6 7 8 9 6 3 3 5 5 3 3 5 5 6 6 3 4 2 2 4 3 0 2 3 5 5 5 4 3 4
9 7 9 9 6 11 11 12 13 15 14 13 11 9 8 9 9 7 5 5 3 4 7 6 5 2 3 5 5 5 5 7 9 11 7 6 3 3 5 4 3 4 4 3 4 5 5 5 5
6 4 8 9 9 7 10 11 11 12 12 11 11 10 9 8 7 6 5 4 3 2 5 4 3 2 3 3 4 7 7 8 9 7 10 7 5 4 7 4 6 5 5 4 5 7 8 2 4
6 8 2 1 4 4 5 4 7 8 10 7 7 10 10 11 11 12 7 3 5 4 3 3 3 2 5 6 6 7 9 9 11 9 10 9 6 4 8 6 6 5 6 6 6 6 7 6 6
9 12 7 5 4 1 3 4 4 6 9 7 4 8 11 12 12 11 3 7 6 5 3 2 3 4 3 6 7 7 9 12 13 9 13 14 9 6 5 8 7 7 8 7 7 7 5 7 5
10 12 8 8 8 2 2 6 5 9 11 7 6 9 9 11 11 10 14 13 4 2 4 4 2 3 4 5 6 7 8 5 13 15 16 16 11 8 5 7 7 8 8 9 8 5 5 6 5
11 11 8 12 9 1 3 4 7 11 10 9 7 6 10 8 9 11 12 15 14 14 9 6 4 4 3 3 6 6 8 5 7 5 14 11 11 9 7 4 7 6 7 9 8 6 5 5 5
13 11 9 9 8 4 3 1 11 10 8 6 2 4 8 8 8 10 13 15 15 8 6 9 9 4 3 3 5 5 6 5 7 1 11 13 13 12 8 10 10 8 9 12 13 6 7 7 6
12 8 7 8 6 3 5 2 13 12 8 1 1 8 7 5 6 10 11 14 15 11 7 9 7 7 4 4 4 4 5 3 2 3 7 11 13 13 11 10 11 13 11 13 14 14 10 10 8
11 11 9 9 5 3 3 1 11 11 7 3 2 10 4 2 5 9 13 20 20 23 17 11 9 7 4 4 5 4 4 4 4 5 7 10 13 15 14 12 12 12 11 13 12 13 12 10 9
9 8 10 9 5 7 4 1 3 6 5 4 6 11 3 6 7 10 13 18 21 22 19 19 4 12 11 8 6 6 5 5 6 6 7 9 13 14 16 15 15 15 14 13 14 13 13 12 13
8 10 9 10 8 9 8 4 4 6 8 8 9 8 3 4 5 10 14 18 25 17 22 32 14 4 10 9 11 10 10 9 9 9 10 12 14 15 14 16 18 18 18 15 15 13 13 15 16
11 10 7 10 12 13 13 11 11 11 10 8 10 11 10 9 7 10 15 15 20 21 16 26 15 14 12 9 11 13 12 13 12 12 12 14 17 16 15 18 17 21 23 20 17 17 16 20 17
8 7 8 8 13 17 18 18 17 16 16 13 11 12 14 12 11 12 18 12 21 15 23 18 18 16 15 14 14 13 15 17 16 14 14 16 18 18 18 19 21 22 24 24 25 19 18 18 18
9 9 9 8 9 10 11 12 16 18 19 17 14 13 15 16 20 21 15 21 16 13 21 20 18 21 19 13 16 13 16 18 19 18 16 16 19 21 21 21 25 22 25 26 27 24 21 17 20
13 10 9 13 18 19 18 16 16 18 18 20 21 19 20 19 20 23 17 15 18 20 20 22 22 24 21 17 14 15 17 20 21 21 19 16 18 19 22 21 22 20 18 19 25 25 22 17 20
9 13 15 19 20 23 23 22 20 21 22 23 24 25 25 27 29 29 22 22 20 20 22 21 24 22 22 16 14 14 18 26 24 20 20 15 17 20 23 18 15 21 21 21 22 25 24 22 23
15 19 22 22 27 27 28 28 27 24 25 26 26 26 27 29 30 29 27 27 26 25 23 21 21 15 17 12 11 18 21 23 27 15 22 13 13 21 21 15 19 21 21 22 24 24 24 24 26
Wind_Direction
51 36 359 2 115 39 35 44 35 31 34 44 43 50 59 53 56 55 72 89 80 84 89 101 99 99 91 92 85 101 128 93 68 99 4 236 304 343 344 70 2 12 9 21 19 6 17 327 262
17 31 5 34 62 55 19 11 357 346 6 12 48 58 63 54 70 60 65 84 89 74 93 112 111 103 104 96 76 112 126 70 2 322 138 172 284 317 1 307 316 348 354 8 14 20 30 10 3
15 350 8 343 351 355 351 345 349 335 342 19 79 31 51 58 77 66 61 75 104 90 70 90 131 130 116 95 85 97 85 85 283 41 137 267 326 302 330 297 312 346 355 4 11 40 39 32 358
349 313 313 292 337 348 329 339 333 333 339 17 339 13 42 43 78 78 55 56 87 99 107 101 138 142 124 105 104 103 96 97 70 33 284 252 63 4 272 227 299 359 4 11 29 43 51 63 42
275 290 333 40 313 322 312 330 331 343 350 357 21 26 15 43 75 72 44 40 79 87 102 144 141 153 134 116 125 97 81 83 96 267 286 295 278 131 156 159 75 16 351 18 26 38 56 60 37
287 254 217 316 326 342 358 3 352 348 347 44 37 29 21 6 155 1 52 43 20 171 172 216 171 158 158 144 143 131 79 48 41 350 328 8 347 190 108 107 58 22 33 19 38 59 57 58 51
284 250 230 223 298 303 34 38 7 3 12 35 50 15 8 2 283 348 72 31 318 227 214 209 206 185 178 172 175 172 134 42 20 19 2 120 280 72 71 58 45 21 34 35 59 73 61 68 84
294 12 165 231 231 251 32 104 15 28 345 349 2 0 355 8 63 53 44 358 277 258 234 215 217 207 195 185 179 179 171 75 20 13 150 123 167 126 215 158 63 31 22 39 70 70 75 76 103
352 90 320 106 127 131 115 150 280 318 326 330 336 354 16 33 61 44 13 340 311 306 299 270 232 222 217 203 195 157 344 61 33 20 140 152 151 150 190 199 61 14 71 46 76 68 70 88 111
59 32 66 72 89 117 111 116 96 48 338 318 319 9 21 13 36 46 16 34 331 338 331 311 262 242 238 220 188 168 197 102 48 42 77 151 135 146 171 177 106 39 70 74 86 77 87 93 116
19 70 83 85 75 63 99 121 86 67 331 323 321 356 35 18 9 64 165 256 266 309 344 335 295 279 264 278 273 215 186 221 182 86 131 163 135 144 144 157 143 83 180 94 109 94 89 110 128
38 97 56 28 73 83 84 80 72 80 60 52 41 38 31 35 40 195 280 309 306 307 293 319 316 282 273 251 281 276 231 220 242 251 151 188 208 293 204 170 158 197 189 133 111 130 108 116 121
116 94 70 48 91 89 76 63 64 67 60 52 44 45 39 35 40 23 348 329 273 293 282 285 296 314 273 258 263 268 277 251 250 249 224 163 135 181 157 148 100 165 172 146 117 130 179 183 152
110 86 83 61 72 102 87 77 73 70 53 34 29 44 41 38 19 27 18 350 300 258 263 272 280 287 288 281 267 248 258 261 250 247 228 192 152 207 199 208 248 169 171 139 130 130 165 145 154
99 96 77 79 77 87 110 106 94 86 72 45 18 23 24 27 31 20 2 357 348 324 246 237 253 301 296 300 284 258 253 266 277 239 213 204 195 224 216 231 223 164 203 175 135 140 164 155 143
76 38 64 109 80 136 144 126 125 106 100 80 32 350 8 15 29 33 30 28 19 350 352 284 251 283 302 309 290 273 265 274 274 219 203 218 214 213 221 198 191 195 181 179 153 162 176 159 148
22 7 344 307 320 18 144 161 164 148 140 111 54 332 351 5 14 18 351 57 6 22 11 326 244 245 275 297 290 275 279 261 264 251 213 206 208 209 195 210 218 207 201 196 167 169 183 157 142
3 352 327 293 301 11 148 193 193 183 144 128 70 341 337 348 1 1 345 21 349 358 347 37 13 273 272 294 292 293 288 246 275 281 197 201 198 203 211 199 203 210 208 204 209 175 186 201 214
346 335 307 292 297 313 123 170 214 168 139 122 97 320 332 328 331 335 332 342 57 3 351 352 22 334 307 300 300 288 279 278 293 356 193 204 202 204 200 214 197 198 204 197 195 173 165 204 195
326 323 304 293 297 310 86 121 191 142 155 149 136 298 318 339 326 313 314 342 22 42 15 29 5 332 296 310 313 268 283 301 316 196 175 208 213 214 215 220 224 218 222 217 212 231 210 205 208
319 313 311 277 287 303 37 73 171 181 179 150 267 335 311 347 322 327 351 351 349 349 9 26 2 341 292 276 282 279 259 258 265 238 216 221 227 229 222 218 239 236 236 221 224 236 217 203 208
307 304 286 265 273 311 8 168 182 186 211 245 286 327 318 327 340 329 340 358 354 351 355 355 339 323 304 268 268 261 244 250 228 225 236 243 237 244 237 226 233 247 229 211 211 218 220 221 214
279 279 263 259 237 275 312 314 233 208 236 239 284 280 348 35 359 331 330 332 342 338 334 317 346 338 317 279 247 254 245 238 242 232 224 242 250 261 233 238 240 250 224 212 213 218 229 226 227
274 276 269 260 243 255 278 306 294 284 275 270 251 237 291 344 313 305 308 328 344 328 1 344 321 326 298 287 263 252 249 236 227 231 237 235 237 245 256 245 254 239 223 220 222 224 227 227 241
281 291 288 238 223 243 261 275 288 286 279 277 237 234 269 277 284 312 342 341 347 4 356 0 334 313 276 272 269 260 255 250 240 228 226 236 239 234 245 247 260 233 233 231 225 230 234 238 241
288 292 292 271 248 255 269 275 285 293 299 304 298 263 256 271 285 305 332 324 285 354 351 350 354 303 294 258 269 259 257 250 246 243 236 237 242 240 250 250 255 243 234 236 232 235 229 235 229
270 287 285 284 282 282 285 281 275 279 287 287 289 286 281 292 304 309 272 317 312 336 335 336 344 335 333 283 257 255 257 256 248 242 245 246 251 248 257 263 253 245 235 238 231 227 221 238 231
265 283 286 292 299 292 293 285 281 284 290 299 301 297 297 305 305 305 315 314 314 308 327 320 321 325 312 301 271 279 269 259 252 249 245 254 259 259 260 271 246 231 214 213 216 212 221 236 229
281 302 298 290 297 300 300 297 298 296 291 289 288 288 291 293 298 301 297 305 306 309 315 325 317 316 311 294 261 278 280 264 245 244 248 246 261 273 269 263 224 209 210 207 211 212 224 233 219
285 281 277 283 295 294 294 297 301 296 294 294 291 286 284 286 291 295 295 297 297 296 299 303 311 325 324 300 256 282 277 282 288 262 243 258 279 280 273 229 212 205 204 207 208 212 224 214 213
Height
5915 5914 5913 5913 5915 5913 5912 5912 5911 5911 5910 5908 5908 5907 5907 5908 5905 5907 5904 5902 5901 5900 5899 5900 5900 5900 5900 5900 5900 5899 5899 5900 5899 5900 5901 5901 5902 5902 5903 5904 5905 5905 5905 5906 5907 5907 5907 5907 5906
5914 5914 5915 5914 5915 5912 5913 5912 5912 5912 5910 5908 5908 5908 5907 5908 5906 5904 5905 5904 5902 5902 5900 5900 5901 5901 5901 5902 5901 5900 5900 5900 5900 5900 5899 5900 5902 5902 5903 5903 5904 5905 5905 5906 5907 5907 5907 5907 5905
5916 5916 5917 5916 5914 5913 5913 5911 5911 5911 5911 5910 5908 5909 5908 5907 5907 5906 5905 5904 5902 5901 5901 5901 5901 5902 5902 5902 5902 5901 5901 5901 5902 5901 5901 5899 5900 5900 5902 5903 5904 5905 5906 5906 5907 5907 5907 5906 5905
5917 5918 5919 5917 5916 5916 5914 5913 5912 5911 5911 5910 5909 5908 5906 5906 5905 5906 5905 5904 5902 5901 5901 5902 5903 5902 5903 5903 5903 5903 5902 5902 5901 5903 5901 5898 5896 5900 5900 5901 5904 5905 5906 5906 5907 5906 5906 5906 5904
5918 5919 5919 5917 5916 5916 5914 5913 5911 5910 5910 5909 5907 5906 5905 5904 5904 5905 5905 5903 5902 5901 5901 5902 5903 5904 5903 5903 5903 5903 5902 5902 5901 5902 5901 5901 5899 5896 5898 5901 5903 5904 5905 5905 5906 5906 5906 5905 5903
5920 5920 5920 5919 5916 5915 5913 5913 5911 5909 5907 5905 5905 5905 5904 5904 5904 5904 5904 5904 5902 5901 5901 5902 5903 5903 5904 5904 5903 5903 5902 5902 5902 5901 5900 5897 5898 5897 5898 5900 5903 5904 5905 5905 5906 5906 5905 5904 5903
5918 5921 5920 5920 5917 5915 5914 5913 5910 5907 5905 5905 5905 5906 5906 5904 5903 5903 5902 5902 5903 5901 5901 5901 5902 5902 5903 5903 5902 5903 5903 5903 5902 5901 5899 5899 5900 5901 5902 5902 5904 5905 5905 5905 5905 5906 5906 5905 5904
5917 5920 5920 5919 5917 5916 5914 5912 5910 5906 5903 5903 5905 5906 5905 5903 5902 5902 5901 5901 5902 5902 5901 5901 5902 5902 5903 5903 5902 5903 5903 5904 5902 5901 5900 5900 5901 5903 5903 5904 5904 5905 5905 5905 5905 5904 5906 5905 5905
5917 5919 5918 5917 5916 5916 5915 5913 5910 5907 5903 5903 5904 5905 5904 5903 5902 5902 5901 5901 5901 5901 5901 5902 5902 5903 5902 5902 5902 5902 5902 5903 5902 5901 5900 5901 5901 5902 5904 5905 5905 5905 5905 5905 5905 5905 5906 5907 5907
5917 5917 5915 5915 5915 5914 5913 5912 5910 5908 5906 5905 5905 5906 5905 5904 5902 5902 5902 5902 5902 5901 5901 5901 5901 5902 5901 5901 5901 5902 5902 5901 5901 5901 5901 5901 5901 5903 5903 5905 5905 5905 5906 5905 5905 5906 5906 5908 5909
5917 5916 5916 5915 5916 5914 5913 5912 5910 5908 5907 5906 5906 5906 5905 5903 5903 5902 5901 5901 5901 5901 5900 5899 5900 5900 5900 5900 5901 5901 5901 5901 5902 5903 5902 5902 5902 5903 5904 5905 5905 5905 5906 5906 5906 5907 5907 5909 5910
5917 5918 5917 5916 5915 5915 5913 5911 5910 5909 5908 5907 5906 5906 5904 5904 5903 5902 5902 5901 5901 5900 5900 5899 5899 5899 5899 5899 5899 5900 5901 5901 5901 5901 5902 5902 5902 5902 5903 5904 5905 5906 5907 5907 5907 5908 5909 5910 5911
5917 5918 5917 5916 5914 5914 5914 5912 5911 5910 5909 5908 5906 5906 5905 5904 5903 5902 5900 5899 5899 5899 5899 5898 5898 5898 5898 5898 5898 5897 5899 5901 5900 5900 5900 5901 5901 5902 5903 5904 5905 5906 5907 5907 5907 5908 5910 5911 5911
5918 5919 5918 5918 5916 5915 5915 5914 5913 5912 5911 5908 5906 5906 5905 5905 5903 5902 5901 5900 5899 5899 5898 5897 5897 5897 5897 5898 5898 5897 5897 5898 5898 5898 5899 5901 5901 5901 5903 5904 5905 5907 5907 5907 5907 5908 5909 5910 5911
5919 5919 5918 5918 5918 5917 5916 5916 5915 5914 5913 5911 5908 5906 5906 5906 5905 5903 5902 5900 5899 5899 5898 5898 5897 5896 5896 5896 5896 5897 5897 5895 5895 5895 5898 5899 5900 5900 5902 5903 5903 5906 5907 5907 5908 5908 5910 5910 5911
5920 5920 5919 5918 5918 5918 5918 5917 5915 5915 5914 5913 5912 5908 5906 5906 5906 5905 5902 5900 5899 5899 5898 5898 5897 5896 5896 5896 5895 5895 5895 5894 5891 5893 5896 5897 5899 5899 5900 5902 5903 5905 5907 5908 5908 5909 5910 5911 5912
5919 5919 5919 5919 5919 5918 5917 5917 5916 5915 5914 5914 5913 5910 5908 5907 5907 5904 5899 5898 5899 5896 5896 5895 5894 5894 5894 5895 5894 5893 5893 5893 5891 5890 5891 5895 5897 5899 5900 5901 5902 5904 5906 5907 5909 5910 5911 5911 5913
5920 5919 5919 5918 5919 5918 5918 5917 5916 5915 5915 5914 5913 5912 5910 5909 5907 5905 5897 5897 5902 5896 5896 5895 5895 5894 5893 5892 5892 5891 5891 5889 5889 5888 5889 5894 5896 5897 5899 5900 5901 5903 5905 5906 5908 5910 5911 5912 5913
5919 5919 5918 5917 5917 5917 5917 5917 5916 5916 5915 5915 5914 5913 5911 5910 5908 5904 5901 5900 5898 5901 5898 5897 5893 5894 5893 5891 5891 5890 5890 5890 5888 5886 5891 5893 5896 5896 5898 5899 5901 5902 5903 5905 5907 5909 5910 5911 5913
5917 5916 5916 5917 5916 5916 5917 5917 5916 5916 5916 5915 5914 5913 5911 5909 5908 5905 5901 5901 5903 5899 5896 5895 5895 5893 5892 5890 5890 5890 5889 5888 5888 5889 5890 5893 5894 5896 5897 5899 5900 5901 5902 5904 5906 5908 5910 5911 5912
5915 5915 5914 5915 5915 5915 5915 5915 5915 5917 5916 5915 5914 5914 5911 5909 5908 5904 5902 5900 5898 5898 5894 5891 5893 5894 5892 5890 5889 5887 5888 5887 5888 5890 5892 5893 5894 5894 5896 5897 5899 5899 5900 5902 5904 5906 5908 5910 5911
5913 5913 5914 5913 5914 5914 5915 5916 5916 5916 5915 5915 5915 5914 5911 5910 5908 5905 5902 5902 5900 5895 5894 5893 5894 5893 5890 5889 5888 5887 5886 5886 5886 5887 5890 5891 5892 5894 5894 5894 5896 5897 5898 5899 5901 5904 5906 5908 5909
5912 5912 5912 5912 5912 5913 5914 5916 5915 5915 5915 5915 5914 5914 5912 5910 5908 5905 5903 5902 5900 5895 5893 5892 5891 5893 5892 5889 5886 5885 5885 5884 5884 5885 5887 5888 5889 5890 5891 5892 5892 5893 5895 5896 5898 5901 5904 5906 5908
5910 5910 5911 5911 5912 5912 5912 5914 5914 5914 5914 5914 5913 5912 5910 5909 5907 5906 5904 5903 5900 5894 5893 5887 5884 5886 5888 5887 5886 5884 5882 5882 5882 5882 5883 5885 5886 5886 5886 5888 5889 5891 5892 5894 5896 5898 5900 5902 5905
5909 5909 5910 5911 5911 5911 5910 5912 5911 5911 5912 5912 5911 5910 5909 5908 5907 5906 5905 5903 5898 5895 5892 5889 5883 5884 5885 5884 5885 5885 5883 5881 5880 5879 5879 5880 5881 5881 5882 5883 5884 5885 5888 5891 5894 5895 5897 5898 5901
5907 5908 5908 5908 5909 5908 5907 5908 5908 5907 5907 5907 5907 5908 5906 5906 5906 5905 5902 5899 5890 5893 5891 5889 5885 5883 5883 5883 5883 5882 5881 5880 5879 5878 5876 5876 5877 5878 5878 5878 5878 5880 5883 5886 5889 5891 5893 5895 5897
5906 5906 5906 5905 5905 5904 5904 5904 5903 5903 5902 5903 5903 5902 5902 5902 5902 5901 5897 5896 5894 5890 5889 5886 5884 5882 5879 5879 5879 5879 5879 5878 5878 5875 5874 5873 5874 5874 5873 5872 5872 5874 5877 5880 5884 5887 5889 5891 5894
5903 5904 5903 5901 5900 5899 5899 5899 5898 5898 5898 5897 5896 5897 5896 5896 5894 5893 5894 5893 5890 5887 5885 5881 5880 5879 5878 5875 5876 5876 5877 5878 5875 5872 5870 5869 5869 5869 5867 5866 5866 5869 5871 5875 5879 5883 5886 5887 5889
5900 5899 5898 5897 5896 5894 5893 5894 5893 5893 5892 5891 5890 5890 5889 5888 5886 5886 5887 5885 5884 5882 5879 5877 5876 5874 5872 5870 5872 5875 5876 5869 5861 5863 5865 5862 5864 5864 5864 5861 5862 5865 5868 5871 5875 5879 5882 5883 5886
5895 5894 5893 5892 5891 5889 5887 5886 5885 5886 5885 5884 5883 5882 5882 5881 5879 5878 5876 5876 5876 5876 5875 5873 5871 5871 5869 5868 5870 5872 5870 5862 5851 5848 5860 5859 5859 5860 5859 5858 5861 5863 5865 5868 5871 5875 5877 5879 5882